{"data":{"norad_id":69523,"epoch":"2026-09-19T15:17:07.161216Z","epoch_age_seconds":100067,"freshness":"FRESH","line1":"1 69523U 26133R   26262.63688844  .00011017  00000+0  33692-3 0  9990","line2":"2 69523  53.1577 233.6051 0001325  84.0801 276.0353 15.34379529 16637","mean_motion":15.34379529,"eccentricity":0.0001325,"inclination_deg":53.1577,"raan_deg":233.6051,"arg_perigee_deg":84.0801,"mean_anomaly_deg":276.0353,"bstar":0.00033692,"rev_number":1663,"period_min":93.849010155818,"perigee_km":461.85766561587,"apogee_km":463.6705044034,"semimajor_km":6840.9010850096,"source":"CELESTRAK","updated_at":"2026-09-20T09:00:44.213533Z"}}